Year,Month,Day,Hour,Minute,Value (Times are PST for temperature in C)
2008,06,21,00,00,10.70
2008,06,21,00,01,10.70
2008,06,21,00,02,10.70
2008,06,21,00,03,10.70
2008,06,21,00,04,10.70
2008,06,21,00,05,10.70
2008,06,21,00,06,10.70
2008,06,21,00,07,10.70
2008,06,21,00,08,10.70
2008,06,21,00,09,10.70
2008,06,21,00,10,10.70
2008,06,21,00,11,10.60
2008,06,21,00,12,10.60
2008,06,21,00,13,10.60
2008,06,21,00,14,10.60
2008,06,21,00,15,10.60
2008,06,21,00,16,10.60
2008,06,21,00,17,10.60
2008,06,21,00,18,10.50
2008,06,21,00,19,10.40
2008,06,21,00,20,10.40
2008,06,21,00,21,10.40
2008,06,21,00,22,10.40
2008,06,21,00,23,10.40
2008,06,21,00,24,10.40
2008,06,21,00,25,10.40
2008,06,21,00,26,10.30
2008,06,21,00,27,10.30
2008,06,21,00,28,10.30
2008,06,21,00,29,10.30
2008,06,21,00,30,10.20
2008,06,21,00,31,10.20
2008,06,21,00,32,10.30
2008,06,21,00,33,10.30
2008,06,21,00,34,10.30
2008,06,21,00,35,10.30
2008,06,21,00,36,10.30
2008,06,21,00,37,10.30
2008,06,21,00,38,10.20
2008,06,21,00,39,10.10
2008,06,21,00,40,10.10
2008,06,21,00,41,10.00
2008,06,21,00,42,9.90
2008,06,21,00,43,9.90
2008,06,21,00,44,9.90
2008,06,21,00,45,9.90
2008,06,21,00,46,9.90
2008,06,21,00,47,9.90
2008,06,21,00,48,9.90
2008,06,21,00,49,9.90
2008,06,21,00,50,9.90
2008,06,21,00,51,9.90
2008,06,21,00,52,9.90
2008,06,21,00,53,9.90
2008,06,21,00,54,9.90
2008,06,21,00,55,9.90
2008,06,21,00,56,9.90
2008,06,21,00,57,9.90
2008,06,21,00,58,9.90
2008,06,21,00,59,9.90
2008,06,21,01,00,9.90
2008,06,21,01,01,9.90
2008,06,21,01,02,9.90
2008,06,21,01,03,10.00
2008,06,21,01,04,10.10
2008,06,21,01,05,10.10
2008,06,21,01,06,10.00
2008,06,21,01,07,10.00
2008,06,21,01,08,10.10
2008,06,21,01,09,10.10
2008,06,21,01,10,10.10
2008,06,21,01,11,10.10
2008,06,21,01,12,10.10
2008,06,21,01,13,9.90
2008,06,21,01,14,10.00
2008,06,21,01,15,9.90
2008,06,21,01,16,9.90
2008,06,21,01,17,9.90
2008,06,21,01,18,9.90
2008,06,21,01,19,9.90
2008,06,21,01,20,9.90
2008,06,21,01,21,9.90
2008,06,21,01,22,10.00
2008,06,21,01,23,10.10
2008,06,21,01,24,10.10
2008,06,21,01,25,10.10
2008,06,21,01,26,10.10
2008,06,21,01,27,10.10
2008,06,21,01,28,10.10
2008,06,21,01,29,10.10
2008,06,21,01,30,10.10
2008,06,21,01,31,9.90
2008,06,21,01,32,9.90
2008,06,21,01,33,9.90
2008,06,21,01,34,9.90
2008,06,21,01,35,9.90
2008,06,21,01,36,9.80
2008,06,21,01,37,9.70
2008,06,21,01,38,9.70
2008,06,21,01,39,9.70
2008,06,21,01,40,9.70
2008,06,21,01,41,9.70
2008,06,21,01,42,9.70
2008,06,21,01,43,9.70
2008,06,21,01,44,9.70
2008,06,21,01,45,9.70
2008,06,21,01,46,9.70
2008,06,21,01,47,9.70
2008,06,21,01,48,9.70
2008,06,21,01,49,9.70
2008,06,21,01,50,9.70
2008,06,21,01,51,9.70
2008,06,21,01,52,9.70
2008,06,21,01,53,9.70
2008,06,21,01,54,9.70
2008,06,21,01,55,9.70
2008,06,21,01,56,9.70
2008,06,21,01,57,9.70
2008,06,21,01,58,9.70
2008,06,21,01,59,9.70
2008,06,21,02,00,9.70
2008,06,21,02,01,9.70
2008,06,21,02,02,9.70
2008,06,21,02,03,9.80
2008,06,21,02,04,9.80
2008,06,21,02,05,9.80
2008,06,21,02,06,9.80
2008,06,21,02,07,9.80
2008,06,21,02,08,9.80
2008,06,21,02,09,9.70
2008,06,21,02,10,9.70
2008,06,21,02,11,9.70
2008,06,21,02,12,9.70
2008,06,21,02,13,9.70
2008,06,21,02,14,9.70
2008,06,21,02,15,9.70
2008,06,21,02,16,9.70
2008,06,21,02,17,9.70
2008,06,21,02,18,9.70
2008,06,21,02,19,9.70
2008,06,21,02,20,9.80
2008,06,21,02,21,9.80
2008,06,21,02,22,9.90
2008,06,21,02,23,9.90
2008,06,21,02,24,9.90
2008,06,21,02,25,9.90
2008,06,21,02,26,9.90
2008,06,21,02,27,9.90
2008,06,21,02,28,9.90
2008,06,21,02,29,9.90
2008,06,21,02,30,9.90
2008,06,21,02,31,9.90
2008,06,21,02,32,9.90
2008,06,21,02,33,9.90
2008,06,21,02,34,9.90
2008,06,21,02,35,9.90
2008,06,21,02,36,9.90
2008,06,21,02,37,9.90
2008,06,21,02,38,9.90
2008,06,21,02,39,9.80
2008,06,21,02,40,9.80
2008,06,21,02,41,9.80
2008,06,21,02,42,9.80
2008,06,21,02,43,9.80
2008,06,21,02,44,9.90
2008,06,21,02,45,9.90
2008,06,21,02,46,9.90
2008,06,21,02,47,9.90
2008,06,21,02,48,9.90
2008,06,21,02,49,9.90
2008,06,21,02,50,10.00
2008,06,21,02,51,10.00
2008,06,21,02,52,9.90
2008,06,21,02,53,9.90
2008,06,21,02,54,9.80
2008,06,21,02,55,9.70
2008,06,21,02,56,9.70
2008,06,21,02,57,9.70
2008,06,21,02,58,9.70
2008,06,21,02,59,9.60
2008,06,21,03,00,9.60
2008,06,21,03,01,9.60
2008,06,21,03,02,9.60
2008,06,21,03,03,9.60
2008,06,21,03,04,9.70
2008,06,21,03,05,9.70
2008,06,21,03,06,9.80
2008,06,21,03,07,9.80
2008,06,21,03,08,9.80
2008,06,21,03,09,9.80
2008,06,21,03,10,9.90
2008,06,21,03,11,9.90
2008,06,21,03,12,9.90
2008,06,21,03,13,9.90
2008,06,21,03,14,9.90
2008,06,21,03,15,9.90
2008,06,21,03,16,10.00
2008,06,21,03,17,10.10
2008,06,21,03,18,10.00
2008,06,21,03,19,9.90
2008,06,21,03,20,9.90
2008,06,21,03,21,10.00
2008,06,21,03,22,10.10
2008,06,21,03,23,10.10
2008,06,21,03,24,10.10
2008,06,21,03,25,10.10
2008,06,21,03,26,9.90
2008,06,21,03,27,9.90
2008,06,21,03,28,9.80
2008,06,21,03,29,9.80
2008,06,21,03,30,9.80
2008,06,21,03,31,9.80
2008,06,21,03,32,9.80
2008,06,21,03,33,9.80
2008,06,21,03,34,9.80
2008,06,21,03,35,9.70
2008,06,21,03,36,9.70
2008,06,21,03,37,9.70
2008,06,21,03,38,9.70
2008,06,21,03,39,9.70
2008,06,21,03,40,9.70
2008,06,21,03,41,9.70
2008,06,21,03,42,9.70
2008,06,21,03,43,9.70
2008,06,21,03,44,9.70
2008,06,21,03,45,9.70
2008,06,21,03,46,9.60
2008,06,21,03,47,9.60
2008,06,21,03,48,9.50
2008,06,21,03,49,9.50
2008,06,21,03,50,9.50
2008,06,21,03,51,9.50
2008,06,21,03,52,9.50
2008,06,21,03,53,9.50
2008,06,21,03,54,9.50
2008,06,21,03,55,9.50
2008,06,21,03,56,9.50
2008,06,21,03,57,9.50
2008,06,21,03,58,9.50
2008,06,21,03,59,9.50
2008,06,21,04,00,9.50
2008,06,21,04,01,9.50
2008,06,21,04,02,9.50
2008,06,21,04,03,9.60
2008,06,21,04,04,9.60
2008,06,21,04,05,9.70
2008,06,21,04,06,9.70
2008,06,21,04,07,9.80
2008,06,21,04,08,9.90
2008,06,21,04,09,9.90
2008,06,21,04,10,9.90
2008,06,21,04,11,9.90
2008,06,21,04,12,9.90
2008,06,21,04,13,9.90
2008,06,21,04,14,9.90
2008,06,21,04,15,9.80
2008,06,21,04,16,9.80
2008,06,21,04,17,9.80
2008,06,21,04,18,9.70
2008,06,21,04,19,9.70
2008,06,21,04,20,9.70
2008,06,21,04,21,9.70
2008,06,21,04,22,9.70
2008,06,21,04,23,9.70
2008,06,21,04,24,9.70
2008,06,21,04,25,9.70
2008,06,21,04,26,9.70
2008,06,21,04,27,9.70
2008,06,21,04,28,9.70
2008,06,21,04,29,9.70
2008,06,21,04,30,9.70
2008,06,21,04,31,9.70
2008,06,21,04,32,9.70
2008,06,21,04,33,9.70
2008,06,21,04,34,9.80
2008,06,21,04,35,9.80
2008,06,21,04,36,9.90
2008,06,21,04,37,10.00
2008,06,21,04,38,10.10
2008,06,21,04,39,10.10
2008,06,21,04,40,10.10
2008,06,21,04,41,9.90
2008,06,21,04,42,9.90
2008,06,21,04,43,9.90
2008,06,21,04,44,9.90
2008,06,21,04,45,10.00
2008,06,21,04,46,10.10
2008,06,21,04,47,10.10
2008,06,21,04,48,10.10
2008,06,21,04,49,10.10
2008,06,21,04,50,10.10
2008,06,21,04,51,10.10
2008,06,21,04,52,10.20
2008,06,21,04,53,10.30
2008,06,21,04,54,10.30
2008,06,21,04,55,10.30
2008,06,21,04,56,10.30
2008,06,21,04,57,10.20
2008,06,21,04,58,10.20
2008,06,21,04,59,10.20
2008,06,21,05,00,10.20
2008,06,21,05,01,10.30
2008,06,21,05,02,10.40
2008,06,21,05,03,10.20
2008,06,21,05,04,10.10
2008,06,21,05,05,10.10
2008,06,21,05,06,9.90
2008,06,21,05,07,9.90
2008,06,21,05,08,9.90
2008,06,21,05,09,9.90
2008,06,21,05,10,10.00
2008,06,21,05,11,10.10
2008,06,21,05,12,10.10
2008,06,21,05,13,10.10
2008,06,21,05,14,10.10
2008,06,21,05,15,9.90
2008,06,21,05,16,9.90
2008,06,21,05,17,10.10
2008,06,21,05,18,10.10
2008,06,21,05,19,10.10
2008,06,21,05,20,10.10
2008,06,21,05,21,10.10
2008,06,21,05,22,10.10
2008,06,21,05,23,10.10
2008,06,21,05,24,10.10
2008,06,21,05,25,10.10
2008,06,21,05,26,10.00
2008,06,21,05,27,9.90
2008,06,21,05,28,9.90
2008,06,21,05,29,9.90
2008,06,21,05,30,9.90
2008,06,21,05,31,9.90
2008,06,21,05,32,9.90
2008,06,21,05,33,9.90
2008,06,21,05,34,9.90
2008,06,21,05,35,9.90
2008,06,21,05,36,9.90
2008,06,21,05,37,9.90
2008,06,21,05,38,9.90
2008,06,21,05,39,9.90
2008,06,21,05,40,9.80
2008,06,21,05,41,9.80
2008,06,21,05,42,9.80
2008,06,21,05,43,9.80
2008,06,21,05,44,9.80
2008,06,21,05,45,9.80
2008,06,21,05,46,9.80
2008,06,21,05,47,9.80
2008,06,21,05,48,9.80
2008,06,21,05,49,9.80
2008,06,21,05,50,9.90
2008,06,21,05,51,9.90
2008,06,21,05,52,9.90
2008,06,21,05,53,9.90
2008,06,21,05,54,9.90
2008,06,21,05,55,9.90
2008,06,21,05,56,9.90
2008,06,21,05,57,9.90
2008,06,21,05,58,9.90
2008,06,21,05,59,9.90
2008,06,21,06,00,9.90
2008,06,21,06,01,10.00
2008,06,21,06,02,10.10
2008,06,21,06,03,10.10
2008,06,21,06,04,10.10
2008,06,21,06,05,10.10
2008,06,21,06,06,10.10
2008,06,21,06,07,10.10
2008,06,21,06,08,10.10
2008,06,21,06,09,10.10
2008,06,21,06,10,10.10
2008,06,21,06,11,10.10
2008,06,21,06,12,10.20
2008,06,21,06,13,10.20
2008,06,21,06,14,10.20
2008,06,21,06,15,10.20
2008,06,21,06,16,10.20
2008,06,21,06,17,10.20
2008,06,21,06,18,10.20
2008,06,21,06,19,10.30
2008,06,21,06,20,10.30
2008,06,21,06,21,10.30
2008,06,21,06,22,10.30
2008,06,21,06,23,10.20
2008,06,21,06,24,10.20
2008,06,21,06,25,10.20
2008,06,21,06,26,10.20
2008,06,21,06,27,10.20
2008,06,21,06,28,10.10
2008,06,21,06,29,10.10
2008,06,21,06,30,10.10
2008,06,21,06,31,10.10
2008,06,21,06,32,10.10
2008,06,21,06,33,10.00
2008,06,21,06,34,9.90
2008,06,21,06,35,9.90
2008,06,21,06,36,9.90
2008,06,21,06,37,10.00
2008,06,21,06,38,10.10
2008,06,21,06,39,10.10
2008,06,21,06,40,10.10
2008,06,21,06,41,10.10
2008,06,21,06,42,10.10
2008,06,21,06,43,10.20
2008,06,21,06,44,10.30
2008,06,21,06,45,10.30
2008,06,21,06,46,10.40
2008,06,21,06,47,10.40
2008,06,21,06,48,10.50
2008,06,21,06,49,10.60
2008,06,21,06,50,10.60
2008,06,21,06,51,10.60
2008,06,21,06,52,10.60
2008,06,21,06,53,10.60
2008,06,21,06,54,10.70
2008,06,21,06,55,10.70
2008,06,21,06,56,10.70
2008,06,21,06,57,10.70
2008,06,21,06,58,10.70
2008,06,21,06,59,10.80
2008,06,21,07,00,10.80
2008,06,21,07,01,10.80
2008,06,21,07,02,10.80
2008,06,21,07,03,10.90
2008,06,21,07,04,10.90
2008,06,21,07,05,10.90
2008,06,21,07,06,10.90
2008,06,21,07,07,10.90
2008,06,21,07,08,10.90
2008,06,21,07,09,10.90
2008,06,21,07,10,10.90
2008,06,21,07,11,10.90
2008,06,21,07,12,10.90
2008,06,21,07,13,11.00
2008,06,21,07,14,11.10
2008,06,21,07,15,11.10
2008,06,21,07,16,11.10
2008,06,21,07,17,11.10
2008,06,21,07,18,11.10
2008,06,21,07,19,11.10
2008,06,21,07,20,11.10
2008,06,21,07,21,11.10
2008,06,21,07,22,11.10
2008,06,21,07,23,11.10
2008,06,21,07,24,11.10
2008,06,21,07,25,11.20
2008,06,21,07,26,11.20
2008,06,21,07,27,11.20
2008,06,21,07,28,11.20
2008,06,21,07,29,11.30
2008,06,21,07,30,11.30
2008,06,21,07,31,11.30
2008,06,21,07,32,11.40
2008,06,21,07,33,11.40
2008,06,21,07,34,11.40
2008,06,21,07,35,11.40
2008,06,21,07,36,11.40
2008,06,21,07,37,11.40
2008,06,21,07,38,11.40
2008,06,21,07,39,11.40
2008,06,21,07,40,11.50
2008,06,21,07,41,11.60
2008,06,21,07,42,11.60
2008,06,21,07,43,11.60
2008,06,21,07,44,11.60
2008,06,21,07,45,11.60
2008,06,21,07,46,11.60
2008,06,21,07,47,11.60
2008,06,21,07,48,11.70
2008,06,21,07,49,11.70
2008,06,21,07,50,11.70
2008,06,21,07,51,11.70
2008,06,21,07,52,11.70
2008,06,21,07,53,11.70
2008,06,21,07,54,11.80
2008,06,21,07,55,11.80
2008,06,21,07,56,11.80
2008,06,21,07,57,11.80
2008,06,21,07,58,11.90
2008,06,21,07,59,11.90
2008,06,21,08,00,12.00
2008,06,21,08,01,12.00
2008,06,21,08,02,12.10
2008,06,21,08,03,12.20
2008,06,21,08,04,12.20
2008,06,21,08,05,12.20
2008,06,21,08,06,12.30
2008,06,21,08,07,12.30
2008,06,21,08,08,12.30
2008,06,21,08,09,12.40
2008,06,21,08,10,12.50
2008,06,21,08,11,12.50
2008,06,21,08,12,12.60
2008,06,21,08,13,12.60
2008,06,21,08,14,12.60
2008,06,21,08,15,12.70
2008,06,21,08,16,12.70
2008,06,21,08,17,12.70
2008,06,21,08,18,12.70
2008,06,21,08,19,12.80
2008,06,21,08,20,12.80
2008,06,21,08,21,12.80
2008,06,21,08,22,12.80
2008,06,21,08,23,12.90
2008,06,21,08,24,13.00
2008,06,21,08,25,13.00
2008,06,21,08,26,13.00
2008,06,21,08,27,13.10
2008,06,21,08,28,13.10
2008,06,21,08,29,13.10
2008,06,21,08,30,13.20
2008,06,21,08,31,13.20
2008,06,21,08,32,13.20
2008,06,21,08,33,13.30
2008,06,21,08,34,13.30
2008,06,21,08,35,13.30
2008,06,21,08,36,13.40
2008,06,21,08,37,13.40
2008,06,21,08,38,13.40
2008,06,21,08,39,13.40
2008,06,21,08,40,13.40
2008,06,21,08,41,13.40
2008,06,21,08,42,13.40
2008,06,21,08,43,13.40
2008,06,21,08,44,13.40
2008,06,21,08,45,13.40
2008,06,21,08,46,13.50
2008,06,21,08,47,13.50
2008,06,21,08,48,13.40
2008,06,21,08,49,13.30
2008,06,21,08,50,13.30
2008,06,21,08,51,13.40
2008,06,21,08,52,13.40
2008,06,21,08,53,13.50
2008,06,21,08,54,13.60
2008,06,21,08,55,13.70
2008,06,21,08,56,13.70
2008,06,21,08,57,13.70
2008,06,21,08,58,13.70
2008,06,21,08,59,13.80
2008,06,21,09,00,13.90
2008,06,21,09,01,13.90
2008,06,21,09,02,14.00
2008,06,21,09,03,14.10
2008,06,21,09,04,14.10
2008,06,21,09,05,14.00
2008,06,21,09,06,14.00
2008,06,21,09,07,14.00
2008,06,21,09,08,14.00
2008,06,21,09,09,14.00
2008,06,21,09,10,14.00
2008,06,21,09,11,14.00
2008,06,21,09,12,14.10
2008,06,21,09,13,14.10
2008,06,21,09,14,14.10
2008,06,21,09,15,14.10
2008,06,21,09,16,14.20
2008,06,21,09,17,14.20
2008,06,21,09,18,14.30
2008,06,21,09,19,14.40
2008,06,21,09,20,14.50
2008,06,21,09,21,14.60
2008,06,21,09,22,14.70
2008,06,21,09,23,14.80
2008,06,21,09,24,14.90
2008,06,21,09,25,15.00
2008,06,21,09,26,15.10
2008,06,21,09,27,15.20
2008,06,21,09,28,15.20
2008,06,21,09,29,15.20
2008,06,21,09,30,15.10
2008,06,21,09,31,14.70
2008,06,21,09,32,14.30
2008,06,21,09,33,13.90
2008,06,21,09,34,13.70
2008,06,21,09,35,13.50
2008,06,21,09,36,13.50
2008,06,21,09,37,13.50
2008,06,21,09,38,13.50
2008,06,21,09,39,13.50
2008,06,21,09,40,13.50
2008,06,21,09,41,13.60
2008,06,21,09,42,13.60
2008,06,21,09,43,13.70
2008,06,21,09,44,13.70
2008,06,21,09,45,13.70
2008,06,21,09,46,13.80
2008,06,21,09,47,13.90
2008,06,21,09,48,14.00
2008,06,21,09,49,14.20
2008,06,21,09,50,14.30
2008,06,21,09,51,14.30
2008,06,21,09,52,14.20
2008,06,21,09,53,14.30
2008,06,21,09,54,14.20
2008,06,21,09,55,14.10
2008,06,21,09,56,14.00
2008,06,21,09,57,13.90
2008,06,21,09,58,13.80
2008,06,21,09,59,13.70
2008,06,21,10,00,13.60
2008,06,21,10,01,13.50
2008,06,21,10,02,13.40
2008,06,21,10,03,13.40
2008,06,21,10,04,13.40
2008,06,21,10,05,13.50
2008,06,21,10,06,13.50
2008,06,21,10,07,13.60
2008,06,21,10,08,13.80
2008,06,21,10,09,14.00
2008,06,21,10,10,14.00
2008,06,21,10,11,14.10
2008,06,21,10,12,14.20
2008,06,21,10,13,14.20
2008,06,21,10,14,14.20
2008,06,21,10,15,14.20
2008,06,21,10,16,14.10
2008,06,21,10,17,13.80
2008,06,21,10,18,13.50
2008,06,21,10,19,13.20
2008,06,21,10,20,13.20
2008,06,21,10,21,13.20
2008,06,21,10,22,13.20
2008,06,21,10,23,13.10
2008,06,21,10,24,13.00
2008,06,21,10,25,13.00
2008,06,21,10,26,13.10
2008,06,21,10,27,13.20
2008,06,21,10,28,13.20
2008,06,21,10,29,13.30
2008,06,21,10,30,13.30
2008,06,21,10,31,13.50
2008,06,21,10,32,13.60
2008,06,21,10,33,13.70
2008,06,21,10,34,13.90
2008,06,21,10,35,14.10
2008,06,21,10,36,14.30
2008,06,21,10,37,14.60
2008,06,21,10,38,14.70
2008,06,21,10,39,14.90
2008,06,21,10,40,15.10
2008,06,21,10,41,15.30
2008,06,21,10,42,15.40
2008,06,21,10,43,15.50
2008,06,21,10,44,15.50
2008,06,21,10,45,15.60
2008,06,21,10,46,15.60
2008,06,21,10,47,15.60
2008,06,21,10,48,15.60
2008,06,21,10,49,15.60
2008,06,21,10,50,15.60
2008,06,21,10,51,15.70
2008,06,21,10,52,15.80
2008,06,21,10,53,15.90
2008,06,21,10,54,16.10
2008,06,21,10,55,16.10
2008,06,21,10,56,16.20
2008,06,21,10,57,16.10
2008,06,21,10,58,15.90
2008,06,21,10,59,15.80
2008,06,21,11,00,15.70
2008,06,21,11,01,15.60
2008,06,21,11,02,15.50
2008,06,21,11,03,15.20
2008,06,21,11,04,15.00
2008,06,21,11,05,14.80
2008,06,21,11,06,14.60
2008,06,21,11,07,14.50
2008,06,21,11,08,14.30
2008,06,21,11,09,14.30
2008,06,21,11,10,14.30
2008,06,21,11,11,14.30
2008,06,21,11,12,14.30
2008,06,21,11,13,14.40
2008,06,21,11,14,14.40
2008,06,21,11,15,14.20
2008,06,21,11,16,14.20
2008,06,21,11,17,14.20
2008,06,21,11,18,14.20
2008,06,21,11,19,14.20
2008,06,21,11,20,14.20
2008,06,21,11,21,14.20
2008,06,21,11,22,14.20
2008,06,21,11,23,14.20
2008,06,21,11,24,14.20
2008,06,21,11,25,14.20
2008,06,21,11,26,14.30
2008,06,21,11,27,14.30
2008,06,21,11,28,14.40
2008,06,21,11,29,14.40
2008,06,21,11,30,14.30
2008,06,21,11,31,14.30
2008,06,21,11,32,14.30
2008,06,21,11,33,14.30
2008,06,21,11,34,14.20
2008,06,21,11,35,14.20
2008,06,21,11,36,14.20
2008,06,21,11,37,14.20
2008,06,21,11,38,14.20
2008,06,21,11,39,14.30
2008,06,21,11,40,14.30
2008,06,21,11,41,14.30
2008,06,21,11,42,14.40
2008,06,21,11,43,14.40
2008,06,21,11,44,14.30
2008,06,21,11,45,14.30
2008,06,21,11,46,14.40
2008,06,21,11,47,14.40
2008,06,21,11,48,14.40
2008,06,21,11,49,14.40
2008,06,21,11,50,14.40
2008,06,21,11,51,14.40
2008,06,21,11,52,14.40
2008,06,21,11,53,14.40
2008,06,21,11,54,14.50
2008,06,21,11,55,14.60
2008,06,21,11,56,14.80
2008,06,21,11,57,14.80
2008,06,21,11,58,14.90
2008,06,21,11,59,15.00
2008,06,21,12,00,15.10
2008,06,21,12,01,15.20
2008,06,21,12,02,15.40
2008,06,21,12,03,15.60
2008,06,21,12,04,15.80
2008,06,21,12,05,15.90
2008,06,21,12,06,16.10
2008,06,21,12,07,16.10
2008,06,21,12,08,16.10
2008,06,21,12,09,16.10
2008,06,21,12,10,16.10
2008,06,21,12,11,16.10
2008,06,21,12,12,16.10
2008,06,21,12,13,16.10
2008,06,21,12,14,15.90
2008,06,21,12,15,15.90
2008,06,21,12,16,15.80
2008,06,21,12,17,15.80
2008,06,21,12,18,15.80
2008,06,21,12,19,15.80
2008,06,21,12,20,15.70
2008,06,21,12,21,15.60
2008,06,21,12,22,15.60
2008,06,21,12,23,15.60
2008,06,21,12,24,15.60
2008,06,21,12,25,15.60
2008,06,21,12,26,15.70
2008,06,21,12,27,15.70
2008,06,21,12,28,15.70
2008,06,21,12,29,15.80
2008,06,21,12,30,15.80
2008,06,21,12,31,15.80
2008,06,21,12,32,15.80
2008,06,21,12,33,15.80
2008,06,21,12,34,15.90
2008,06,21,12,35,15.90
2008,06,21,12,36,15.90
2008,06,21,12,37,15.90
2008,06,21,12,38,16.00
2008,06,21,12,39,16.10
2008,06,21,12,40,16.10
2008,06,21,12,41,16.10
2008,06,21,12,42,16.10
2008,06,21,12,43,16.10
2008,06,21,12,44,16.30
2008,06,21,12,45,16.50
2008,06,21,12,46,16.70
2008,06,21,12,47,16.80
2008,06,21,12,48,16.90
2008,06,21,12,49,16.90
2008,06,21,12,50,16.90
2008,06,21,12,51,16.80
2008,06,21,12,52,16.80
2008,06,21,12,53,16.90
2008,06,21,12,54,16.80
2008,06,21,12,55,16.80
2008,06,21,12,56,16.80
2008,06,21,12,57,16.70
2008,06,21,12,58,16.80
2008,06,21,12,59,16.80
2008,06,21,13,00,16.80
2008,06,21,13,01,16.80
2008,06,21,13,02,16.90
2008,06,21,13,03,17.00
2008,06,21,13,04,17.20
2008,06,21,13,05,17.40
2008,06,21,13,06,17.50
2008,06,21,13,07,17.50
2008,06,21,13,08,17.50
2008,06,21,13,09,17.50
2008,06,21,13,10,17.60
2008,06,21,13,11,17.70
2008,06,21,13,12,17.70
2008,06,21,13,13,17.90
2008,06,21,13,14,17.90
2008,06,21,13,15,17.80
2008,06,21,13,16,17.70
2008,06,21,13,17,17.60
2008,06,21,13,18,17.60
2008,06,21,13,19,17.50
2008,06,21,13,20,17.60
2008,06,21,13,21,17.60
2008,06,21,13,22,17.70
2008,06,21,13,23,17.50
2008,06,21,13,24,17.30
2008,06,21,13,25,17.30
2008,06,21,13,26,17.30
2008,06,21,13,27,17.40
2008,06,21,13,28,17.50
2008,06,21,13,29,17.50
2008,06,21,13,30,17.40
2008,06,21,13,31,17.30
2008,06,21,13,32,17.30
2008,06,21,13,33,17.20
2008,06,21,13,34,17.10
2008,06,21,13,35,17.20
2008,06,21,13,36,17.20
2008,06,21,13,37,17.10
2008,06,21,13,38,17.00
2008,06,21,13,39,17.00
2008,06,21,13,40,17.10
2008,06,21,13,41,17.10
2008,06,21,13,42,17.10
2008,06,21,13,43,17.20
2008,06,21,13,44,17.30
2008,06,21,13,45,17.30
2008,06,21,13,46,17.30
2008,06,21,13,47,17.30
2008,06,21,13,48,17.30
2008,06,21,13,49,17.30
2008,06,21,13,50,17.20
2008,06,21,13,51,17.20
2008,06,21,13,52,17.20
2008,06,21,13,53,17.30
2008,06,21,13,54,17.40
2008,06,21,13,55,17.50
2008,06,21,13,56,17.70
2008,06,21,13,57,17.90
2008,06,21,13,58,18.10
2008,06,21,13,59,18.20
2008,06,21,14,00,18.20
2008,06,21,14,01,18.20
2008,06,21,14,02,18.10
2008,06,21,14,03,18.10
2008,06,21,14,04,18.10
2008,06,21,14,05,18.00
2008,06,21,14,06,17.90
2008,06,21,14,07,17.90
2008,06,21,14,08,18.00
2008,06,21,14,09,18.10
2008,06,21,14,10,18.10
2008,06,21,14,11,18.00
2008,06,21,14,12,18.00
2008,06,21,14,13,18.00
2008,06,21,14,14,18.00
2008,06,21,14,15,18.10
2008,06,21,14,16,18.20
2008,06,21,14,17,18.20
2008,06,21,14,18,18.30
2008,06,21,14,19,18.40
2008,06,21,14,20,18.30
2008,06,21,14,21,18.20
2008,06,21,14,22,18.10
2008,06,21,14,23,18.00
2008,06,21,14,24,18.00
2008,06,21,14,25,18.10
2008,06,21,14,26,18.20
2008,06,21,14,27,18.20
2008,06,21,14,28,18.20
2008,06,21,14,29,18.20
2008,06,21,14,30,18.20
2008,06,21,14,31,18.20
2008,06,21,14,32,18.20
2008,06,21,14,33,18.20
2008,06,21,14,34,18.20
2008,06,21,14,35,18.20
2008,06,21,14,36,18.20
2008,06,21,14,37,18.20
2008,06,21,14,38,18.20
2008,06,21,14,39,18.20
2008,06,21,14,40,18.20
2008,06,21,14,41,18.20
2008,06,21,14,42,18.20
2008,06,21,14,43,18.10
2008,06,21,14,44,18.10
2008,06,21,14,45,18.10
2008,06,21,14,46,18.10
2008,06,21,14,47,18.10
2008,06,21,14,48,18.10
2008,06,21,14,49,18.10
2008,06,21,14,50,18.00
2008,06,21,14,51,17.90
2008,06,21,14,52,17.90
2008,06,21,14,53,18.10
2008,06,21,14,54,18.20
2008,06,21,14,55,18.30
2008,06,21,14,56,18.20
2008,06,21,14,57,18.20
2008,06,21,14,58,18.10
2008,06,21,14,59,17.90
2008,06,21,15,00,17.90
2008,06,21,15,01,17.90
2008,06,21,15,02,17.90
2008,06,21,15,03,17.90
2008,06,21,15,04,17.90
2008,06,21,15,05,17.80
2008,06,21,15,06,17.70
2008,06,21,15,07,17.50
2008,06,21,15,08,17.30
2008,06,21,15,09,17.20
2008,06,21,15,10,17.00
2008,06,21,15,11,16.90
2008,06,21,15,12,16.70
2008,06,21,15,13,16.70
2008,06,21,15,14,16.70
2008,06,21,15,15,16.60
2008,06,21,15,16,16.40
2008,06,21,15,17,16.40
2008,06,21,15,18,16.40
2008,06,21,15,19,16.20
2008,06,21,15,20,15.90
2008,06,21,15,21,15.70
2008,06,21,15,22,15.50
2008,06,21,15,23,15.50
2008,06,21,15,24,15.30
2008,06,21,15,25,15.20
2008,06,21,15,26,15.10
2008,06,21,15,27,15.20
2008,06,21,15,28,15.20
2008,06,21,15,29,15.20
2008,06,21,15,30,15.20
2008,06,21,15,31,15.30
2008,06,21,15,32,15.50
2008,06,21,15,33,15.70
2008,06,21,15,34,16.00
2008,06,21,15,35,16.20
2008,06,21,15,36,16.40
2008,06,21,15,37,16.60
2008,06,21,15,38,16.80
2008,06,21,15,39,16.90
2008,06,21,15,40,16.80
2008,06,21,15,41,16.60
2008,06,21,15,42,16.40
2008,06,21,15,43,16.40
2008,06,21,15,44,16.30
2008,06,21,15,45,16.30
2008,06,21,15,46,16.30
2008,06,21,15,47,16.20
2008,06,21,15,48,16.30
2008,06,21,15,49,16.30
2008,06,21,15,50,16.30
2008,06,21,15,51,16.20
2008,06,21,15,52,16.20
2008,06,21,15,53,16.20
2008,06,21,15,54,16.00
2008,06,21,15,55,15.80
2008,06,21,15,56,15.70
2008,06,21,15,57,15.70
2008,06,21,15,58,15.60
2008,06,21,15,59,15.50
2008,06,21,16,00,15.50
2008,06,21,16,01,15.50
2008,06,21,16,02,15.60
2008,06,21,16,03,15.60
2008,06,21,16,04,15.50
2008,06,21,16,05,15.40
2008,06,21,16,06,15.30
2008,06,21,16,07,15.40
2008,06,21,16,08,15.30
2008,06,21,16,09,15.20
2008,06,21,16,10,15.00
2008,06,21,16,11,14.90
2008,06,21,16,12,14.80
2008,06,21,16,13,14.80
2008,06,21,16,14,14.70
2008,06,21,16,15,14.60
2008,06,21,16,16,14.50
2008,06,21,16,17,14.50
2008,06,21,16,18,14.50
2008,06,21,16,19,14.40
2008,06,21,16,20,14.30
2008,06,21,16,21,14.30
2008,06,21,16,22,14.20
2008,06,21,16,23,14.20
2008,06,21,16,24,14.20
2008,06,21,16,25,14.20
2008,06,21,16,26,14.20
2008,06,21,16,27,14.10
2008,06,21,16,28,14.00
2008,06,21,16,29,14.10
2008,06,21,16,30,14.10
2008,06,21,16,31,14.10
2008,06,21,16,32,14.10
2008,06,21,16,33,14.30
2008,06,21,16,34,14.50
2008,06,21,16,35,14.60
2008,06,21,16,36,14.70
2008,06,21,16,37,14.80
2008,06,21,16,38,14.80
2008,06,21,16,39,15.00
2008,06,21,16,40,15.10
2008,06,21,16,41,15.30
2008,06,21,16,42,15.50
2008,06,21,16,43,15.70
2008,06,21,16,44,15.90
2008,06,21,16,45,16.20
2008,06,21,16,46,16.50
2008,06,21,16,47,16.80
2008,06,21,16,48,17.10
2008,06,21,16,49,17.40
2008,06,21,16,50,17.60
2008,06,21,16,51,17.80
2008,06,21,16,52,18.00
2008,06,21,16,53,18.20
2008,06,21,16,54,18.40
2008,06,21,16,55,18.60
2008,06,21,16,56,18.90
2008,06,21,16,57,19.20
2008,06,21,16,58,19.50
2008,06,21,16,59,19.60
2008,06,21,17,00,19.70
2008,06,21,17,01,19.80
2008,06,21,17,02,19.90
2008,06,21,17,03,20.10
2008,06,21,17,04,20.40
2008,06,21,17,05,20.70
2008,06,21,17,06,21.00
2008,06,21,17,07,21.20
2008,06,21,17,08,21.30
2008,06,21,17,09,21.30
2008,06,21,17,10,21.30
2008,06,21,17,11,21.60
2008,06,21,17,12,21.80
2008,06,21,17,13,22.00
2008,06,21,17,14,22.30
2008,06,21,17,15,22.40
2008,06,21,17,16,22.60
2008,06,21,17,17,22.70
2008,06,21,17,18,22.80
2008,06,21,17,19,22.90
2008,06,21,17,20,23.00
2008,06,21,17,21,23.10
2008,06,21,17,22,23.20
2008,06,21,17,23,23.30
2008,06,21,17,24,23.30
2008,06,21,17,25,23.40
2008,06,21,17,26,23.40
2008,06,21,17,27,23.50
2008,06,21,17,28,23.60
2008,06,21,17,29,23.60
2008,06,21,17,30,23.60